DW1541 Weather Reports


time (UTC)temp
C
wind
direction
speed
KPH
gust
KPH
rain 1hr
cm
rain 24hr
cm
rain mn
cm
humidity
%
barometer
mb
20260505004530 25 0.0 0.0 0.00 0.00 0.00 45 1009.2
20260505004016 25 0.0 0.0 0.00 0.00 0.00 45 1009.3
20260505003514 25 0.0 0.0 0.00 0.00 0.00 44 1009.3
20260505003033 25 0.0 0.0 0.00 0.00 0.00 43 1009.5
20260505002517 25 0.0 0.0 0.00 0.00 0.00 44 1009.3
20260505002017 25 0.0 0.0 0.00 0.00 0.00 46 1009.4
20260505001541 25 0.0 0.0 0.00 0.00 0.00 43 1009.4
20260505001017 25 0.0 0.0 0.00 0.00 0.00 44 1009.4
20260505000517 25 0.0 0.0 0.00 0.00 0.00 43 1009.4
20260505000032 25 0.0 0.0 0.00 0.00 0.00 42 1009.5
20260504235517 25 0.0 0.0 0.00 0.00 0.00 43 1009.5
20260504235016 25 0.0 0.0 0.00 0.00 0.00 43 1009.5
20260504234532 25 0.0 0.0 0.00 0.00 0.00 43 1009.5
20260504234014 25 0.0 0.0 0.00 0.00 0.00 42 1009.6
20260504233514 25 0.0 0.0 0.00 0.00 0.00 42 1009.7
20260504233032 25 0.0 0.0 0.00 0.00 0.00 42 1009.6
20260504232514 25 0.0 0.0 0.00 0.00 0.00 42 1009.6
20260504232016 25 0.0 0.0 0.00 0.00 0.00 43 1009.5
20260504231530 25 0.0 0.0 0.00 0.00 0.00 42 1009.6
20260504231016 25 0.0 0.0 0.00 0.00 0.00 41 1009.7
20260504230516 25 0.0 0.0 0.00 0.00 0.00 42 1009.6
20260504230034 25 0.0 0.0 0.00 0.00 0.00 42 1009.7
20260504225515 25 0.0 0.0 0.00 0.00 0.00 43 1009.7
20260504225017 25 0.0 0.0 0.00 0.00 0.00 43 1009.7
20260504224537 25 0.0 0.0 0.00 0.00 0.00 41 1009.7
20260504224015 25 0.0 0.0 0.00 0.00 0.00 40 1009.8
20260504223518 25 0.0 0.0 0.00 0.00 0.00 42 1009.9
20260504223030 25 0.0 0.0 0.00 0.00 0.00 41 1010.0
20260504222514 26 0 0.0 0.0 0.00 0.00 0.00 39 1010.0
20260504222016 26 0 0.0 0.0 0.00 0.00 0.00 38 1010.1
20260504221530 26 0 0.0 0.0 0.00 0.00 0.00 38 1010.2
20260504221016 26 0 0.0 0.0 0.00 0.00 0.00 39 1010.2
20260504220519 26 0 0.0 0.0 0.00 0.00 0.00 41 1010.3
20260504220030 26 0 0.0 0.0 0.00 0.00 0.00 38 1010.2
20260504215517 26 0 0.0 0.0 0.00 0.00 0.00 38 1010.3
20260504215017 27 0 0.0 0.0 0.00 0.00 0.00 37 1010.2
20260504214534 27 0 0.0 0.0 0.00 0.00 0.00 36 1010.3
20260504214017 27 0 0.0 0.0 0.00 0.00 0.00 37 1010.3
20260504213515 27 0 0.0 0.0 0.00 0.00 0.00 39 1010.2
20260504213031 27 0 0.0 0.0 0.00 0.00 0.00 38 1010.3
20260504212515 27 0 0.0 0.0 0.00 0.00 0.00 39 1010.3
20260504212019 27 0 0.0 0.0 0.00 0.00 0.00 39 1010.4
20260504211534 27 0 0.0 0.0 0.00 0.00 0.00 37 1010.4
20260504211017 27 0 0.0 0.0 0.00 0.00 0.00 41 1010.4
20260504210517 27 0 0.0 0.0 0.00 0.00 0.00 43 1010.3
20260504210037 27 0 0.0 0.0 0.00 0.00 0.00 41 1010.4
20260504205517 27 0 0.0 0.0 0.00 0.00 0.00 42 1010.6
20260504205018 27 0 0.0 0.0 0.00 0.00 0.00 44 1010.6
20260504204551 27 0 0.0 0.0 0.00 0.00 0.00 43 1010.6
20260504204016 27 0 0.0 0.0 0.00 0.00 0.00 48 1010.6
20260504203516 27 0 0.0 0.0 0.00 0.00 0.00 42 1010.6
20260504203031 27 0 0.0 0.0 0.00 0.00 0.00 44 1010.6
20260504202516 26 0 0.0 0.0 0.00 0.00 0.00 42 1010.5
20260504202016 26 0 0.0 0.0 0.00 0.00 0.00 47 1010.5
20260504201533 26 0 0.0 0.0 0.00 0.00 0.00 46 1010.5
20260504201016 26 0 0.0 0.0 0.00 0.00 0.00 43 1010.6
20260504200516 26 0 0.0 0.0 0.00 0.00 0.00 47 1010.6
20260504200030 26 0 0.0 0.0 0.00 0.00 0.00 47 1010.6
20260504195515 26 0 0.0 0.0 0.00 0.00 0.00 46 1010.5
20260504195017 26 0 0.0 0.0 0.00 0.00 0.00 44 1010.6
20260504194530 25 0 0.0 0.0 0.00 0.00 0.00 47 1010.4
20260504194017 25 0 0.0 0.0 0.00 0.00 0.00 52 1010.5
20260504193516 24 0 0.0 0.0 0.00 0.00 0.00 52 1010.5
20260504193031 23 0 0.0 0.0 0.00 0.00 0.00 56 1010.7
20260504192516 23 0 0.0 0.0 0.00 0.00 0.00 52 1010.8
20260504192016 22 0 0.0 0.0 0.00 0.00 0.00 58 1010.8
20260504191532 22 0 0.0 0.0 0.00 0.00 0.00 55 1010.9
20260504191019 21 0 0.0 0.0 0.00 0.00 0.00 56 1010.8
20260504190516 21 0 0.0 0.0 0.00 0.00 0.00 60 1010.8
20260504190035 21 0 0.0 0.0 0.00 0.00 0.00 59 1010.8
20260504185516 20 0 0.0 0.0 0.00 0.00 0.00 59 1010.8
20260504185018 20 0 0.0 0.0 0.00 0.00 0.00 57 1010.9
20260504184531 20 0 0.0 0.0 0.00 0.00 0.00 57 1011.0
20260504184017 20 0 0.0 0.0 0.00 0.00 0.00 59 1010.9
20260504183517 20 0 0.0 0.0 0.00 0.00 0.00 59 1011.0
20260504183031 20 0 0.0 0.0 0.00 0.00 0.00 60 1011.0
20260504182516 19 0 0.0 0.0 0.00 0.00 0.00 59 1010.9
20260504182016 19 0 0.0 0.0 0.00 0.00 0.00 59 1010.9
20260504181530 19 0 0.0 0.0 0.00 0.00 0.00 59 1010.9
20260504181017 18 0 0.0 0.0 0.00 0.00 0.00 59 1010.9
20260504180517 18 0 0.0 0.0 0.00 0.00 0.00 59 1011.0
20260504180033 18 0 0.0 0.0 0.00 0.00 0.00 61 1011.0
20260504175516 18 0 0.0 0.0 0.00 0.00 0.00 62 1010.9
20260504175016 18 0 0.0 0.0 0.00 0.00 0.00 63 1011.1
20260504174534 18 0 0.0 0.0 0.00 0.00 0.00 63 1011.0
20260504174016 17 0 0.0 0.0 0.00 0.00 0.00 66 1010.9
20260504173516 17 0 0.0 0.0 0.00 0.00 0.00 64 1010.9
20260504173030 17 0 0.0 0.0 0.00 0.00 0.00 64 1010.9
20260504172515 17 0 0.0 0.0 0.00 0.00 0.00 66 1010.9
20260504172016 17 0 0.0 0.0 0.00 0.00 0.00 66 1011.1
20260504171532 16 0 0.0 0.0 0.00 0.00 0.00 66 1011.0
20260504171020 16 0 0.0 0.0 0.00 0.00 0.00 68 1011.0
20260504170517 16 0 0.0 0.0 0.00 0.00 0.00 68 1011.1
20260504151016 11 0 0.0 0.0 0.00 0.00 0.00 85 1010.4
20260504150515 11 0 0.0 0.0 0.00 0.00 0.00 85 1010.3
20260504141016 11 0 0.0 0.0 0.00 0.00 0.00 86 1010.1
20260504140516 11 0 0.0 0.0 0.00 0.00 0.00 86 1009.9
20260504130519 11 0 0.0 0.0 0.00 0.00 0.00 85 1009.7
20260504110515 12 0 0.0 0.0 0.00 0.00 0.00 83 1009.6
20260504100515 12 0 0.0 0.0 0.00 0.00 0.00 81 1009.3
20260504081535 14 0 0.0 0.0 0.00 0.00 0.00 77 1009.4
20260504081015 14 0 0.0 0.0 0.00 0.00 0.00 77 1009.6
20260504080515 14 0 0.0 0.0 0.00 0.00 0.00 78 1009.5
20260504050521 18 0 0.0 0.0 0.00 0.00 0.00 65 1009.8
20260504045514 18 0 0.0 0.0 0.00 0.00 0.00 64 1009.7
20260504045015 18 0 0.0 0.0 0.00 0.00 0.00 63 1009.7
20260504044546 18 0 0.0 0.0 0.00 0.00 0.00 61 1009.6
20260504044016 18 0 0.0 0.0 0.00 0.00 0.00 62 1009.7
20260504043517 19 0 0.0 0.0 0.00 0.00 0.00 61 1009.6
20260504043030 19 0 0.0 0.0 0.00 0.00 0.00 62 1009.6
20260504042516 19 0 0.0 0.0 0.00 0.00 0.00 62 1009.6
20260504042015 19 0 0.0 0.0 0.00 0.00 0.00 61 1009.6
20260504041541 20 0 0.0 0.0 0.00 0.00 0.00 60 1009.6
20260504041015 20 0 0.0 0.0 0.00 0.00 0.00 61 1009.6
20260504040515 20 0 0.0 0.0 0.00 0.00 0.00 60 1009.5
20260504040040 20 0 0.0 0.0 0.00 0.00 0.00 59 1009.4
20260504035516 20 0 0.0 0.0 0.00 0.00 0.00 60 1009.5
20260504035018 20 0 0.0 0.0 0.00 0.00 0.00 59 1009.4
20260504034544 21 0 0.0 0.0 0.00 0.00 0.00 60 1009.5
20260504034017 21 0 0.0 0.0 0.00 0.00 0.00 59 1009.5
20260504033515 21 0 0.0 0.0 0.00 0.00 0.00 57 1009.4
20260504033032 21 0 0.0 0.0 0.00 0.00 0.00 58 1009.4
20260504032518 21 0 0.0 0.0 0.00 0.00 0.00 56 1009.4
20260504032018 21 0 0.0 0.0 0.00 0.00 0.00 55 1009.3
20260504031542 22 0 0.0 0.0 0.00 0.00 0.00 54 1009.4
20260504031016 22 0 0.0 0.0 0.00 0.00 0.00 55 1009.4
20260504030515 22 0 0.0 0.0 0.00 0.00 0.00 54 1009.5
20260504030035 22 0 0.0 0.0 0.00 0.00 0.00 55 1009.5
20260504025517 22 0 0.0 0.0 0.00 0.00 0.00 54 1009.5
20260504025017 22 0 0.0 0.0 0.00 0.00 0.00 54 1009.5
20260504024530 22 0 0.0 0.0 0.00 0.00 0.00 54 1009.4
20260504024016 23 0 0.0 0.0 0.00 0.00 0.00 55 1009.4
20260504023517 23 0 0.0 0.0 0.00 0.00 0.00 55 1009.3
20260504023030 23 0 0.0 0.0 0.00 0.00 0.00 55 1009.3
20260504022515 23 0 0.0 0.0 0.00 0.00 0.00 54 1009.2
20260504022016 23 0 0.0 0.0 0.00 0.00 0.00 55 1009.3
20260504021534 23 0 0.0 0.0 0.00 0.00 0.00 54 1009.2
20260504021016 23 0 0.0 0.0 0.00 0.00 0.00 55 1009.4
20260504020517 23 0 0.0 0.0 0.00 0.00 0.00 55 1009.4
20260504020038 23 0 0.0 0.0 0.00 0.00 0.00 54 1009.4
20260504015517 23 0 0.0 0.0 0.00 0.00 0.00 54 1009.4
20260504015017 24 0 0.0 0.0 0.00 0.00 0.00 53 1009.4
20260504014537 24 0 0.0 0.0 0.00 0.00 0.00 53 1009.4
20260504014017 24 0 0.0 0.0 0.00 0.00 0.00 52 1009.4
20260504013515 24 0 0.0 0.0 0.00 0.00 0.00 52 1009.5
20260504013042 24 0 0.0 0.0 0.00 0.00 0.00 51 1009.5
20260504012516 24 0 0.0 0.0 0.00 0.00 0.00 50 1009.5
20260504012015 24 0 0.0 0.0 0.00 0.00 0.00 50 1009.4
20260504011529 25 0 0.0 0.0 0.00 0.00 0.00 51 1009.5
20260504011015 25 0 0.0 0.0 0.00 0.00 0.00 52 1009.4
20260504010515 25 0 0.0 0.0 0.00 0.00 0.00 51 1009.4
20260504010032 25 0 0.0 0.0 0.00 0.00 0.00 51 1009.5
20260504005516 25 0 0.0 0.0 0.00 0.00 0.00 51 1009.6
20260504005014 25 0 0.0 0.0 0.00 0.00 0.00 49 1009.6